| time (UTC) | temp C | wind direction | speed KPH | gust KPH | rain 1hr cm | rain 24hr cm | rain mn cm | humidity % | barometer mb |
| 20260505124802 | 25 | 293 | 1.6 | 9.7 | 0.00 | 0.00 | 0.00 | 88 | 1009.5 |
| 20260505124548 | 24 | 0 | 0.0 | 8.0 | 0.00 | 0.00 | 0.00 | 88 | 1009.8 |
| 20260505124302 | 25 | 326 | 0.0 | 9.7 | 0.00 | 0.00 | 0.00 | 88 | 1009.4 |
| 20260505123802 | 25 | 105 | 0.0 | 11.3 | 0.00 | 0.00 | 0.00 | 88 | 1009.4 |
| 20260505123302 | 24 | 113 | 1.6 | 11.3 | 0.00 | 0.00 | 0.00 | 88 | 1009.3 |
| 20260505123106 | 24 | 215 | 0.0 | 8.0 | 0.00 | 0.00 | 0.00 | 88 | 1009.6 |
| 20260505123028 | 24 | 245 | 0.0 | 9.7 | 0.00 | 0.00 | 0.00 | 88 | 1009.4 |
| 20260505122305 | 24 | 222 | 0.0 | 9.7 | 0.00 | 0.00 | 0.00 | 88 | 1009.3 |
| 20260505122050 | 24 | 295 | 0.0 | 6.4 | 0.00 | 0.00 | 0.00 | 88 | 1009.3 |
| 20260505121550 | 24 | 0 | 0.0 | 4.8 | 0.00 | 0.00 | 0.00 | 87 | 1009.7 |
| 20260505121302 | 24 | 246 | 0.0 | 8.0 | 0.00 | 0.00 | 0.00 | 88 | 1009.4 |
| 20260505120801 | 24 | 10 | 0.0 | 9.7 | 0.00 | 0.00 | 0.00 | 87 | 1009.2 |
| 20260505120301 | 24 | 323 | 1.6 | 9.7 | 0.00 | 0.00 | 0.00 | 87 | 1009.2 |
| 20260505120053 | 24 | 300 | 0.0 | 11.3 | 0.00 | 0.00 | 0.00 | 87 | 1009.4 |
| 20260505115802 | 25 | 4 | 1.6 | 9.7 | 0.00 | 0.00 | 0.00 | 87 | 1009.1 |
| 20260505115304 | 25 | 151 | 1.6 | 11.3 | 0.00 | 0.00 | 0.00 | 87 | 1009.0 |
| 20260505114803 | 25 | 311 | 1.6 | 12.9 | 0.00 | 0.00 | 0.00 | 87 | 1009.1 |
| 20260505114558 | 24 | 183 | 0.0 | 16.1 | 0.00 | 0.00 | 0.00 | 86 | 1009.5 |
| 20260505114302 | 25 | 285 | 0.0 | 16.1 | 0.00 | 0.00 | 0.00 | 87 | 1009.1 |
| 20260505113802 | 25 | 133 | 3.2 | 16.1 | 0.00 | 0.00 | 0.00 | 87 | 1009.1 |
| 20260505113302 | 25 | 205 | 1.6 | 11.3 | 0.00 | 0.00 | 0.00 | 87 | 1009.2 |
| 20260505113249 | 25 | 311 | 3.2 | 14.5 | 0.00 | 0.00 | 0.00 | 87 | 1009.0 |
| 20260505113052 | 24 | 297 | 1.6 | 12.9 | 0.00 | 0.00 | 0.00 | 87 | 1009.5 |
| 20260505112305 | 25 | 11 | 0.0 | 14.5 | 0.00 | 0.00 | 0.00 | 87 | 1009.1 |
| 20260505111804 | 25 | 71 | 3.2 | 11.3 | 0.00 | 0.00 | 0.00 | 87 | 1009.0 |
| 20260505111550 | 25 | 171 | 3.2 | 12.9 | 0.00 | 0.00 | 0.00 | 87 | 1009.1 |
| 20260505111545 | 24 | 89 | 1.6 | 12.9 | 0.00 | 0.00 | 0.00 | 87 | 1009.3 |
| 20260505110803 | 25 | 346 | 1.6 | 12.9 | 0.00 | 0.00 | 0.00 | 87 | 1009.1 |
| 20260505110316 | 24 | 282 | 1.6 | 9.7 | 0.00 | 0.00 | 0.00 | 87 | 1009.1 |
| 20260505101804 | 24 | 173 | 0.0 | 8.0 | 0.00 | 0.00 | 0.00 | 88 | 1009.2 |
| 20260505101550 | 24 | 0 | 0.0 | 11.3 | 0.00 | 0.00 | 0.00 | 87 | 1009.4 |
| 20260505101304 | 24 | 297 | 0.0 | 12.9 | 0.00 | 0.00 | 0.00 | 88 | 1009.1 |
| 20260505100803 | 24 | 10 | 0.0 | 12.9 | 0.00 | 0.00 | 0.00 | 87 | 1009.1 |
| 20260505100303 | 24 | 87 | 0.0 | 12.9 | 0.00 | 0.00 | 0.00 | 87 | 1009.0 |
| 20260505100054 | 24 | 346 | 0.0 | 17.7 | 0.00 | 0.00 | 0.00 | 87 | 1009.3 |
| 20260505095802 | 24 | 334 | 0.0 | 17.7 | 0.00 | 0.00 | 0.00 | 87 | 1009.0 |
| 20260505095304 | 24 | 189 | 1.6 | 17.7 | 0.00 | 0.00 | 0.00 | 87 | 1008.9 |
| 20260505094803 | 24 | 240 | 0.0 | 11.3 | 0.00 | 0.00 | 0.00 | 87 | 1009.1 |
| 20260505094552 | 24 | 0 | 1.6 | 11.3 | 0.00 | 0.00 | 0.00 | 87 | 1009.3 |
| 20260505094521 | 24 | 50 | 0.0 | 11.3 | 0.00 | 0.00 | 0.00 | 88 | 1008.9 |
| 20260505093802 | 24 | 271 | 0.0 | 9.7 | 0.00 | 0.00 | 0.00 | 87 | 1009.0 |
| 20260505093302 | 24 | 254 | 1.6 | 11.3 | 0.00 | 0.00 | 0.00 | 87 | 1008.9 |
| 20260505093050 | 24 | 52 | 0.0 | 11.3 | 0.00 | 0.00 | 0.00 | 87 | 1009.2 |
| 20260505092801 | 24 | 231 | 1.6 | 11.3 | 0.00 | 0.00 | 0.00 | 87 | 1009.0 |
| 20260505092304 | 24 | 277 | 3.2 | 12.9 | 0.00 | 0.00 | 0.00 | 87 | 1009.0 |
| 20260505091804 | 24 | 304 | 0.0 | 14.5 | 0.00 | 0.00 | 0.00 | 87 | 1009.1 |
| 20260505091553 | 24 | 0 | 0.0 | 12.9 | 0.00 | 0.00 | 0.00 | 87 | 1009.4 |
| 20260505091523 | 24 | 146 | 3.2 | 14.5 | 0.00 | 0.00 | 0.00 | 87 | 1009.2 |
| 20260505090804 | 24 | 286 | 1.6 | 9.7 | 0.00 | 0.00 | 0.00 | 87 | 1009.1 |
| 20260505090303 | 24 | 341 | 1.6 | 9.7 | 0.00 | 0.00 | 0.00 | 87 | 1009.1 |
| 20260505090106 | 24 | 0 | 0.0 | 11.3 | 0.00 | 0.00 | 0.00 | 87 | 1009.4 |
| 20260505085803 | 24 | 252 | 0.0 | 8.0 | 0.00 | 0.00 | 0.00 | 87 | 1009.1 |
| 20260505085304 | 24 | 198 | 1.6 | 8.0 | 0.00 | 0.00 | 0.00 | 87 | 1009.3 |
| 20260505084803 | 24 | 136 | 1.6 | 12.9 | 0.00 | 0.00 | 0.00 | 87 | 1009.4 |
| 20260505084548 | 24 | 0 | 0.0 | 12.9 | 0.00 | 0.00 | 0.00 | 87 | 1009.7 |
| 20260505084304 | 24 | 229 | 0.0 | 12.9 | 0.00 | 0.00 | 0.00 | 87 | 1009.4 |
| 20260505083803 | 24 | 202 | 0.0 | 6.4 | 0.00 | 0.00 | 0.00 | 87 | 1009.5 |
| 20260505083303 | 24 | 179 | 0.0 | 6.4 | 0.00 | 0.00 | 0.00 | 87 | 1009.6 |
| 20260505083105 | 24 | 0 | 0.0 | 8.0 | 0.00 | 0.00 | 0.00 | 87 | 1010.0 |
| 20260505082804 | 24 | 356 | 0.0 | 6.4 | 0.00 | 0.00 | 0.00 | 87 | 1009.6 |
| 20260505082549 | 24 | 262 | 0.0 | 8.0 | 0.00 | 0.00 | 0.00 | 87 | 1009.8 |
| 20260505081804 | 24 | 207 | 1.6 | 8.0 | 0.00 | 0.00 | 0.00 | 87 | 1009.8 |
| 20260505081554 | 24 | 0 | 0.0 | 9.7 | 0.00 | 0.00 | 0.00 | 86 | 1010.1 |
| 20260505081525 | 24 | 191 | 0.0 | 8.0 | 0.00 | 0.00 | 0.00 | 87 | 1009.9 |
| 20260505080803 | 24 | 68 | 0.0 | 8.0 | 0.00 | 0.00 | 0.00 | 87 | 1009.8 |
| 20260505080303 | 24 | 257 | 0.0 | 9.7 | 0.00 | 0.00 | 0.00 | 87 | 1010.0 |
| 20260505080059 | 24 | 0 | 0.0 | 14.5 | 0.00 | 0.00 | 0.00 | 87 | 1010.4 |
| 20260505075803 | 24 | 259 | 0.0 | 11.3 | 0.00 | 0.00 | 0.00 | 87 | 1010.1 |
| 20260505075304 | 24 | 288 | 1.6 | 11.3 | 0.00 | 0.00 | 0.00 | 87 | 1010.0 |
| 20260505074803 | 24 | 155 | 0.0 | 4.8 | 0.00 | 0.00 | 0.00 | 87 | 1010.1 |
| 20260505074552 | 24 | 269 | 0.0 | 12.9 | 0.00 | 0.00 | 0.00 | 87 | 1010.4 |
| 20260505074524 | 24 | 233 | 0.0 | 14.5 | 0.00 | 0.00 | 0.00 | 87 | 1010.0 |
| 20260505073803 | 24 | 229 | 1.6 | 14.5 | 0.00 | 0.00 | 0.00 | 87 | 1010.1 |
| 20260505073304 | 24 | 231 | 0.0 | 6.4 | 0.00 | 0.00 | 0.00 | 87 | 1010.0 |
| 20260505073058 | 24 | 0 | 0.0 | 8.0 | 0.00 | 0.00 | 0.00 | 86 | 1010.2 |
| 20260505072804 | 24 | 282 | 0.0 | 6.4 | 0.00 | 0.00 | 0.00 | 87 | 1009.9 |
| 20260505072305 | 24 | 255 | 1.6 | 11.3 | 0.00 | 0.00 | 0.00 | 87 | 1010.0 |
| 20260505072051 | 24 | 300 | 0.0 | 11.3 | 0.00 | 0.00 | 0.00 | 87 | 1010.3 |
| 20260505071548 | 24 | 0 | 0.0 | 6.4 | 0.00 | 0.00 | 0.00 | 86 | 1010.5 |
| 20260505071525 | 24 | 20 | 0.0 | 6.4 | 0.00 | 0.00 | 0.00 | 87 | 1010.3 |
| 20260505070803 | 24 | 231 | 0.0 | 6.4 | 0.00 | 0.00 | 0.00 | 87 | 1010.5 |
| 20260505070303 | 24 | 323 | 0.0 | 6.4 | 0.00 | 0.00 | 0.00 | 87 | 1010.7 |
| 20260505070054 | 23 | 0 | 0.0 | 9.7 | 0.00 | 0.00 | 0.00 | 86 | 1011.0 |
| 20260505065803 | 24 | 129 | 0.0 | 6.4 | 0.00 | 0.00 | 0.00 | 87 | 1010.8 |
| 20260505065304 | 24 | 335 | 1.6 | 8.0 | 0.00 | 0.00 | 0.00 | 87 | 1010.8 |
| 20260505064807 | 24 | 101 | 0.0 | 19.3 | 0.00 | 0.00 | 0.00 | 87 | 1010.8 |
| 20260505064552 | 23 | 0 | 1.6 | 19.3 | 0.00 | 0.00 | 0.00 | 86 | 1011.2 |
| 20260505064522 | 24 | 329 | 3.2 | 19.3 | 0.00 | 0.00 | 0.00 | 87 | 1010.9 |
| 20260505063803 | 24 | 162 | 1.6 | 11.3 | 0.00 | 0.00 | 0.00 | 87 | 1011.0 |
| 20260505063303 | 24 | 120 | 3.2 | 11.3 | 0.00 | 0.00 | 0.00 | 87 | 1011.0 |
| 20260505063048 | 23 | 0 | 0.0 | 11.3 | 0.00 | 0.00 | 0.00 | 86 | 1011.3 |
| 20260505062801 | 24 | 251 | 1.6 | 11.3 | 0.00 | 0.00 | 0.00 | 87 | 1010.9 |
| 20260505062301 | 24 | 277 | 3.2 | 11.3 | 0.00 | 0.00 | 0.00 | 86 | 1010.9 |
| 20260505061803 | 24 | 184 | 0.0 | 12.9 | 0.00 | 0.00 | 0.00 | 86 | 1011.0 |
| 20260505061550 | 23 | 20 | 0.0 | 12.9 | 0.00 | 0.00 | 0.00 | 86 | 1011.4 |
| 20260505061302 | 24 | 352 | 1.6 | 12.9 | 0.00 | 0.00 | 0.00 | 86 | 1011.1 |
| 20260505060802 | 24 | 260 | 0.0 | 9.7 | 0.00 | 0.00 | 0.00 | 86 | 1011.2 |
| 20260505060302 | 24 | 340 | 0.0 | 9.7 | 0.00 | 0.00 | 0.00 | 86 | 1011.3 |
| 20260505060057 | 23 | 0 | 0.0 | 9.7 | 0.00 | 0.00 | 0.00 | 86 | 1011.6 |
| 20260505055802 | 24 | 257 | 0.0 | 9.7 | 0.00 | 0.00 | 0.00 | 86 | 1011.3 |
| 20260505055303 | 23 | 134 | 1.6 | 9.7 | 0.00 | 0.00 | 0.00 | 86 | 1011.3 |
| 20260505054804 | 23 | 106 | 0.0 | 9.7 | 0.00 | 0.00 | 0.00 | 86 | 1011.4 |
| 20260505054547 | 23 | 0 | 0.0 | 12.9 | 0.00 | 0.00 | 0.00 | 85 | 1011.8 |
| 20260505054302 | 23 | 349 | 0.0 | 9.7 | 0.00 | 0.00 | 0.00 | 86 | 1011.4 |
| 20260505053803 | 23 | 76 | 1.6 | 9.7 | 0.00 | 0.00 | 0.00 | 86 | 1011.6 |
| 20260505053302 | 23 | 234 | 1.6 | 9.7 | 0.00 | 0.00 | 0.00 | 86 | 1011.6 |
| 20260505053053 | 23 | 0 | 0.0 | 6.4 | 0.00 | 0.00 | 0.00 | 85 | 1011.9 |
| 20260505052802 | 24 | 206 | 0.0 | 6.4 | 0.00 | 0.00 | 0.00 | 85 | 1011.7 |
| 20260505052304 | 24 | 132 | 0.0 | 8.0 | 0.00 | 0.00 | 0.00 | 85 | 1011.8 |
| 20260505051803 | 24 | 322 | 1.6 | 9.7 | 0.00 | 0.00 | 0.00 | 85 | 1011.8 |
| 20260505051752 | 24 | 294 | 1.6 | 9.7 | 0.00 | 0.00 | 0.00 | 85 | 1011.8 |
| 20260505051551 | 23 | 0 | 0.0 | 11.3 | 0.00 | 0.00 | 0.00 | 85 | 1012.1 |
| 20260505050803 | 24 | 176 | 0.0 | 9.7 | 0.00 | 0.00 | 0.00 | 85 | 1011.7 |
| 20260505050303 | 24 | 267 | 0.0 | 4.8 | 0.00 | 0.00 | 0.00 | 85 | 1011.9 |
| 20260505050122 | 23 | 0 | 0.0 | 12.9 | 0.00 | 0.00 | 0.00 | 84 | 1012.1 |
| 20260505041604 | 23 | 0 | 0.0 | 14.5 | 0.00 | 0.00 | 0.00 | 82 | 1012.2 |
| 20260505041320 | 24 | 290 | 1.6 | 14.5 | 0.00 | 0.00 | 0.00 | 83 | 1012.1 |
| 20260505041021 | 24 | 355 | 0.0 | 14.5 | 0.00 | 0.00 | 0.00 | 82 | 1012.0 |
| 20260505040327 | 24 | 295 | 0.0 | 9.7 | 0.00 | 0.00 | 0.00 | 82 | 1012.1 |
| 20260505040057 | 23 | 0 | 0.0 | 9.7 | 0.00 | 0.00 | 0.00 | 82 | 1012.4 |
| 20260505035802 | 24 | 74 | 0.0 | 9.7 | 0.00 | 0.00 | 0.00 | 82 | 1012.2 |
| 20260505035304 | 24 | 257 | 0.0 | 9.7 | 0.00 | 0.00 | 0.00 | 82 | 1012.3 |
| 20260505035023 | 24 | 278 | 0.0 | 9.7 | 0.00 | 0.00 | 0.00 | 81 | 1012.2 |
| 20260505034551 | 23 | 0 | 0.0 | 9.7 | 0.00 | 0.00 | 0.00 | 81 | 1012.3 |
| 20260505034303 | 24 | 274 | 0.0 | 9.7 | 0.00 | 0.00 | 0.00 | 81 | 1012.2 |
| 20260505033802 | 24 | 130 | 1.6 | 9.7 | 0.00 | 0.00 | 0.00 | 81 | 1012.0 |
| 20260505033323 | 24 | 284 | 0.0 | 11.3 | 0.00 | 0.00 | 0.00 | 81 | 1012.1 |
| 20260505033051 | 24 | 231 | 0.0 | 9.7 | 0.00 | 0.00 | 0.00 | 80 | 1012.4 |
| 20260505032802 | 24 | 347 | 1.6 | 11.3 | 0.00 | 0.00 | 0.00 | 81 | 1012.1 |
| 20260505032304 | 24 | 110 | 0.0 | 6.4 | 0.00 | 0.00 | 0.00 | 80 | 1012.0 |
| 20260505032029 | 25 | 267 | 0.0 | 14.5 | 0.00 | 0.00 | 0.00 | 80 | 1012.0 |
| 20260505031550 | 24 | 256 | 0.0 | 12.9 | 0.00 | 0.00 | 0.00 | 79 | 1012.2 |
| 20260505031303 | 25 | 105 | 1.6 | 14.5 | 0.00 | 0.00 | 0.00 | 79 | 1012.0 |
| 20260505030803 | 25 | 218 | 0.0 | 9.7 | 0.00 | 0.00 | 0.00 | 79 | 1012.3 |
| 20260505030315 | 25 | 150 | 0.0 | 9.7 | 0.00 | 0.00 | 0.00 | 79 | 1012.1 |
| 20260505030048 | 24 | 0 | 0.0 | 16.1 | 0.00 | 0.00 | 0.00 | 78 | 1012.3 |
| 20260505030021 | 25 | 259 | 1.6 | 11.3 | 0.00 | 0.00 | 0.00 | 79 | 1012.1 |
| 20260505025304 | 25 | 330 | 0.0 | 12.9 | 0.00 | 0.00 | 0.00 | 78 | 1012.0 |
| 20260505025028 | 25 | 218 | 0.0 | 17.7 | 0.00 | 0.00 | 0.00 | 78 | 1011.9 |
| 20260505024551 | 25 | 0 | 0.0 | 16.1 | 0.00 | 0.00 | 0.00 | 78 | 1012.2 |
| 20260505024301 | 25 | 255 | 0.0 | 17.7 | 0.00 | 0.00 | 0.00 | 78 | 1011.9 |
| 20260505023801 | 25 | 283 | 1.6 | 12.9 | 0.00 | 0.00 | 0.00 | 78 | 1011.8 |
| 20260505023304 | 25 | 248 | 0.0 | 14.5 | 0.00 | 0.00 | 0.00 | 78 | 1011.7 |
| 20260505023054 | 25 | 0 | 0.0 | 14.5 | 0.00 | 0.00 | 0.00 | 77 | 1011.7 |
| 20260505022800 | 25 | 250 | 0.0 | 14.5 | 0.00 | 0.00 | 0.00 | 78 | 1011.6 |
| 20260505022301 | 25 | 302 | 0.0 | 19.3 | 0.00 | 0.00 | 0.00 | 78 | 1011.7 |
| 20260505021800 | 25 | 162 | 0.0 | 19.3 | 0.00 | 0.00 | 0.00 | 77 | 1011.7 |
| 20260505021552 | 25 | 0 | 1.6 | 17.7 | 0.00 | 0.00 | 0.00 | 77 | 1011.7 |
| 20260505021302 | 25 | 131 | 4.8 | 17.7 | 0.00 | 0.00 | 0.00 | 77 | 1011.4 |
| 20260505021027 | 25 | 252 | 0.0 | 16.1 | 0.00 | 0.00 | 0.00 | 78 | 1011.4 |
| 20260505020302 | 25 | 200 | 3.2 | 16.1 | 0.00 | 0.00 | 0.00 | 77 | 1011.4 |
| 20260505020045 | 25 | 0 | 0.0 | 14.5 | 0.00 | 0.00 | 0.00 | 77 | 1011.5 |
| 20260505020028 | 25 | 175 | 1.6 | 16.1 | 0.00 | 0.00 | 0.00 | 77 | 1011.2 |
| 20260505015525 | 25 | 187 | 1.6 | 8.0 | 0.00 | 0.00 | 0.00 | 77 | 1011.2 |
| 20260505014802 | 25 | 79 | 0.0 | 8.0 | 0.00 | 0.00 | 0.00 | 77 | 1011.1 |
| 20260505014605 | 25 | 0 | 0.0 | 11.3 | 0.00 | 0.00 | 0.00 | 76 | 1011.4 |
| 20260505014518 | 25 | 315 | 0.0 | 8.0 | 0.00 | 0.00 | 0.00 | 77 | 1011.0 |
| 20260505013802 | 25 | 210 | 3.2 | 14.5 | 0.00 | 0.00 | 0.00 | 77 | 1011.1 |
| 20260505013303 | 25 | 134 | 1.6 | 14.5 | 0.00 | 0.00 | 0.00 | 77 | 1011.1 |
| 20260505013050 | 25 | 0 | 0.0 | 8.0 | 0.00 | 0.00 | 0.00 | 76 | 1011.4 |
| 20260505012803 | 25 | 163 | 1.6 | 8.0 | 0.00 | 0.00 | 0.00 | 77 | 1011.0 |
| 20260505012304 | 25 | 15 | 1.6 | 8.0 | 0.00 | 0.00 | 0.00 | 76 | 1011.0 |
| 20260505011802 | 25 | 53 | 3.2 | 11.3 | 0.00 | 0.00 | 0.00 | 76 | 1011.0 |
| 20260505011548 | 25 | 93 | 0.0 | 17.7 | 0.00 | 0.00 | 0.00 | 75 | 1011.4 |
| 20260505011302 | 25 | 309 | 0.0 | 11.3 | 0.00 | 0.00 | 0.00 | 76 | 1011.0 |
| 20260505010802 | 25 | 333 | 1.6 | 12.9 | 0.00 | 0.00 | 0.00 | 75 | 1011.2 |
| 20260505010302 | 26 | 198 | 3.2 | 12.9 | 0.00 | 0.00 | 0.00 | 75 | 1011.2 |
| 20260505010049 | 25 | 211 | 1.6 | 14.5 | 0.00 | 0.00 | 0.00 | 74 | 1011.6 |
| 20260505005802 | 26 | 172 | 1.6 | 12.9 | 0.00 | 0.00 | 0.00 | 75 | 1011.2 |
| 20260505005303 | 26 | 237 | 3.2 | 12.9 | 0.00 | 0.00 | 0.00 | 74 | 1011.1 |
| 20260505004800 | 26 | 316 | 1.6 | 11.3 | 0.00 | 0.00 | 0.00 | 74 | 1011.1 |
| 20260505004552 | 26 | 0 | 1.6 | 16.1 | 0.00 | 0.00 | 0.00 | 73 | 1011.4 |
| 20260505004302 | 26 | 271 | 1.6 | 16.1 | 0.00 | 0.00 | 0.00 | 73 | 1011.2 |
| 20260505003801 | 26 | 266 | 3.2 | 16.1 | 0.00 | 0.00 | 0.00 | 73 | 1011.1 |
| 20260505003301 | 26 | 163 | 3.2 | 12.9 | 0.00 | 0.00 | 0.00 | 73 | 1011.1 |
| 20260505003049 | 26 | 92 | 1.6 | 12.9 | 0.00 | 0.00 | 0.00 | 72 | 1011.4 |
| 20260505002801 | 26 | 47 | 4.8 | 12.9 | 0.00 | 0.00 | 0.00 | 72 | 1011.1 |
| 20260505002303 | 27 | 195 | 3.2 | 16.1 | 0.00 | 0.00 | 0.00 | 72 | 1011.1 |
| 20260505002023 | 27 | 96 | 1.6 | 16.1 | 0.00 | 0.00 | 0.00 | 71 | 1011.1 |
| 20260505001611 | 27 | 82 | 3.2 | 16.1 | 0.00 | 0.00 | 0.00 | 70 | 1011.5 |
| 20260505001302 | 27 | 148 | 1.6 | 11.3 | 0.00 | 0.00 | 0.00 | 71 | 1011.2 |
| 20260505000802 | 27 | 316 | 3.2 | 14.5 | 0.00 | 0.00 | 0.00 | 70 | 1011.2 |
| 20260505000304 | 27 | 173 | 3.2 | 14.5 | 0.00 | 0.00 | 0.00 | 70 | 1011.3 |
| 20260505000115 | 27 | 0 | 1.6 | 12.9 | 0.00 | 0.00 | 0.00 | 69 | 1011.6 |
| 20260504235803 | 27 | 285 | 0.0 | 11.3 | 0.00 | 0.00 | 0.00 | 70 | 1011.3 |
| 20260504235520 | 27 | 180 | 1.6 | 11.3 | 0.00 | 0.00 | 0.00 | 69 | 1011.1 |
| 20260504234800 | 27 | 198 | 1.6 | 11.3 | 0.00 | 0.00 | 0.00 | 69 | 1011.3 |
| 20260504234606 | 27 | 56 | 1.6 | 14.5 | 0.00 | 0.00 | 0.00 | 68 | 1011.7 |
| 20260504234301 | 27 | 161 | 0.0 | 6.4 | 0.00 | 0.00 | 0.00 | 69 | 1011.3 |
| 20260504233802 | 27 | 248 | 0.0 | 8.0 | 0.00 | 0.00 | 0.00 | 68 | 1011.2 |
| 20260504233523 | 27 | 209 | 0.0 | 9.7 | 0.00 | 0.00 | 0.00 | 68 | 1011.2 |
| 20260504233059 | 27 | 0 | 1.6 | 12.9 | 0.00 | 0.00 | 0.00 | 68 | 1011.5 |
| 20260504232800 | 28 | 165 | 0.0 | 12.9 | 0.00 | 0.00 | 0.00 | 68 | 1011.2 |
| 20260504232303 | 28 | 236 | 3.2 | 16.1 | 0.00 | 0.00 | 0.00 | 68 | 1011.3 |
| 20260504231801 | 28 | 225 | 1.6 | 16.1 | 0.00 | 0.00 | 0.00 | 67 | 1011.3 |
| 20260504231550 | 27 | 0 | 1.6 | 12.9 | 0.00 | 0.00 | 0.00 | 67 | 1011.4 |
| 20260504231303 | 28 | 253 | 1.6 | 14.5 | 0.00 | 0.00 | 0.00 | 68 | 1011.2 |
| 20260504230803 | 28 | 162 | 0.0 | 14.5 | 0.00 | 0.00 | 0.00 | 68 | 1011.3 |
| 20260504230302 | 28 | 338 | 1.6 | 8.0 | 0.00 | 0.00 | 0.00 | 67 | 1011.3 |
| 20260504230051 | 28 | 0 | 0.0 | 11.3 | 0.00 | 0.00 | 0.00 | 66 | 1011.7 |
| 20260504225802 | 28 | 186 | 0.0 | 11.3 | 0.00 | 0.00 | 0.00 | 67 | 1011.4 |
| 20260504225322 | 28 | 259 | 0.0 | 8.0 | 0.00 | 0.00 | 0.00 | 67 | 1011.6 |
| 20260504225318 | 28 | 240 | 1.6 | 11.3 | 0.00 | 0.00 | 0.00 | 67 | 1011.6 |
| 20260504224555 | 28 | 0 | 1.6 | 9.7 | 0.00 | 0.00 | 0.00 | 66 | 1011.8 |
| 20260504224301 | 28 | 41 | 0.0 | 9.7 | 0.00 | 0.00 | 0.00 | 67 | 1011.6 |
| 20260504223801 | 28 | 23 | 1.6 | 12.9 | 0.00 | 0.00 | 0.00 | 67 | 1011.6 |
| 20260504223301 | 28 | 209 | 3.2 | 12.9 | 0.00 | 0.00 | 0.00 | 67 | 1011.7 |
| 20260504223051 | 28 | 0 | 0.0 | 11.3 | 0.00 | 0.00 | 0.00 | 67 | 1011.8 |
| 20260504222801 | 28 | 72 | 1.6 | 11.3 | 0.00 | 0.00 | 0.00 | 67 | 1011.6 |
| 20260504222301 | 28 | 202 | 1.6 | 11.3 | 0.00 | 0.00 | 0.00 | 68 | 1011.6 |
| 20260504221801 | 28 | 56 | 1.6 | 14.5 | 0.00 | 0.00 | 0.00 | 67 | 1011.4 |
| 20260504221549 | 28 | 0 | 0.0 | 14.5 | 0.00 | 0.00 | 0.00 | 67 | 1011.8 |
| 20260504221300 | 28 | 30 | 4.8 | 14.5 | 0.00 | 0.00 | 0.00 | 67 | 1011.2 |
| 20260504221033 | 28 | 176 | 1.6 | 11.3 | 0.00 | 0.00 | 0.00 | 67 | 1011.3 |
| 20260504220303 | 28 | 231 | 1.6 | 11.3 | 0.00 | 0.00 | 0.00 | 67 | 1011.7 |
| 20260504220058 | 28 | 127 | 3.2 | 17.7 | 0.00 | 0.00 | 0.00 | 67 | 1011.6 |
| 20260504220021 | 28 | 168 | 1.6 | 11.3 | 0.00 | 0.00 | 0.00 | 67 | 1011.7 |
| 20260504215304 | 28 | 194 | 1.6 | 11.3 | 0.00 | 0.00 | 0.00 | 67 | 1011.6 |
| 20260504214802 | 28 | 300 | 3.2 | 14.5 | 0.00 | 0.00 | 0.00 | 67 | 1011.7 |
| 20260504214548 | 28 | 51 | 3.2 | 19.3 | 0.00 | 0.00 | 0.00 | 67 | 1011.9 |
| 20260504214302 | 28 | 257 | 1.6 | 20.9 | 0.00 | 0.00 | 0.00 | 67 | 1011.7 |
| 20260504213802 | 28 | 139 | 1.6 | 20.9 | 0.00 | 0.00 | 0.00 | 66 | 1011.7 |
| 20260504213302 | 28 | 200 | 6.4 | 17.7 | 0.00 | 0.00 | 0.00 | 66 | 1011.7 |
| 20260504213111 | 28 | 264 | 4.8 | 16.1 | 0.00 | 0.00 | 0.00 | 66 | 1012.0 |
| 20260504212802 | 28 | 113 | 3.2 | 14.5 | 0.00 | 0.00 | 0.00 | 67 | 1011.8 |
| 20260504212529 | 28 | 4 | 3.2 | 16.1 | 0.00 | 0.00 | 0.00 | 66 | 1011.9 |
| 20260504211802 | 28 | 219 | 3.2 | 16.1 | 0.00 | 0.00 | 0.00 | 66 | 1011.9 |
| 20260504211559 | 28 | 93 | 4.8 | 16.1 | 0.00 | 0.00 | 0.00 | 65 | 1012.1 |
| 20260504211302 | 28 | 26 | 1.6 | 16.1 | 0.00 | 0.00 | 0.00 | 66 | 1011.9 |
| 20260504210802 | 28 | 261 | 4.8 | 16.1 | 0.00 | 0.00 | 0.00 | 66 | 1012.2 |
| 20260504210303 | 28 | 208 | 3.2 | 16.1 | 0.00 | 0.00 | 0.00 | 66 | 1012.1 |
| 20260504210050 | 28 | 238 | 1.6 | 11.3 | 0.00 | 0.00 | 0.00 | 65 | 1012.5 |
| 20260504205802 | 28 | 98 | 1.6 | 11.3 | 0.00 | 0.00 | 0.00 | 66 | 1012.3 |
| 20260504205303 | 28 | 283 | 0.0 | 14.5 | 0.00 | 0.00 | 0.00 | 66 | 1012.4 |
| 20260504204802 | 28 | 336 | 1.6 | 14.5 | 0.00 | 0.00 | 0.00 | 65 | 1012.4 |
| 20260504204557 | 28 | 0 | 1.6 | 14.5 | 0.00 | 0.00 | 0.00 | 66 | 1012.7 |
| 20260504204526 | 28 | 20 | 8.0 | 14.5 | 0.00 | 0.00 | 0.00 | 66 | 1012.6 |
| 20260504203802 | 28 | 274 | 1.6 | 11.3 | 0.00 | 0.00 | 0.00 | 65 | 1012.6 |
| 20260504203302 | 28 | 269 | 1.6 | 11.3 | 0.00 | 0.00 | 0.00 | 66 | 1012.6 |
| 20260504203102 | 28 | 0 | 1.6 | 11.3 | 0.00 | 0.00 | 0.00 | 65 | 1012.8 |
| 20260504202802 | 28 | 146 | 1.6 | 11.3 | 0.00 | 0.00 | 0.00 | 65 | 1012.7 |
| 20260504202749 | 28 | 262 | 1.6 | 14.5 | 0.00 | 0.00 | 0.00 | 65 | 1012.7 |
| 20260504202024 | 29 | 236 | 3.2 | 14.5 | 0.00 | 0.00 | 0.00 | 64 | 1013.0 |
| 20260504201551 | 28 | 103 | 1.6 | 14.5 | 0.00 | 0.00 | 0.00 | 63 | 1013.1 |
| 20260504201301 | 29 | 320 | 3.2 | 14.5 | 0.00 | 0.00 | 0.00 | 64 | 1013.1 |
| 20260504200803 | 29 | 353 | 1.6 | 11.3 | 0.00 | 0.00 | 0.00 | 64 | 1013.0 |
| 20260504200520 | 29 | 87 | 1.6 | 8.0 | 0.00 | 0.00 | 0.00 | 65 | 1013.1 |
| 20260504200051 | 28 | 0 | 1.6 | 11.3 | 0.00 | 0.00 | 0.00 | 65 | 1013.5 |
| 20260504195803 | 28 | 153 | 1.6 | 12.9 | 0.00 | 0.00 | 0.00 | 65 | 1013.3 |
| 20260504195304 | 28 | 310 | 3.2 | 12.9 | 0.00 | 0.00 | 0.00 | 66 | 1013.2 |
| 20260504194802 | 28 | 330 | 0.0 | 16.1 | 0.00 | 0.00 | 0.00 | 68 | 1013.2 |
| 20260504194559 | 27 | 0 | 0.0 | 16.1 | 0.00 | 0.00 | 0.00 | 67 | 1013.4 |
| 20260504194527 | 28 | 165 | 0.0 | 16.1 | 0.00 | 0.00 | 0.00 | 68 | 1013.3 |
| 20260504193803 | 28 | 172 | 0.0 | 9.7 | 0.00 | 0.00 | 0.00 | 69 | 1013.5 |
| 20260504193303 | 28 | 58 | 1.6 | 11.3 | 0.00 | 0.00 | 0.00 | 68 | 1013.5 |
| 20260504193056 | 27 | 0 | 0.0 | 11.3 | 0.00 | 0.00 | 0.00 | 67 | 1013.8 |
| 20260504192801 | 28 | 335 | 3.2 | 11.3 | 0.00 | 0.00 | 0.00 | 67 | 1013.4 |
| 20260504192301 | 28 | 65 | 0.0 | 6.4 | 0.00 | 0.00 | 0.00 | 67 | 1013.5 |
| 20260504192020 | 28 | 150 | 1.6 | 9.7 | 0.00 | 0.00 | 0.00 | 67 | 1013.5 |
| 20260504191547 | 27 | 0 | 0.0 | 14.5 | 0.00 | 0.00 | 0.00 | 67 | 1013.9 |
| 20260504191520 | 28 | 356 | 1.6 | 11.3 | 0.00 | 0.00 | 0.00 | 68 | 1013.7 |
| 20260504190803 | 27 | 19 | 1.6 | 14.5 | 0.00 | 0.00 | 0.00 | 67 | 1013.7 |
| 20260504190303 | 28 | 203 | 0.0 | 14.5 | 0.00 | 0.00 | 0.00 | 68 | 1013.7 |
| 20260504190114 | 27 | 294 | 0.0 | 12.9 | 0.00 | 0.00 | 0.00 | 67 | 1014.1 |
| 20260504185802 | 28 | 304 | 1.6 | 12.9 | 0.00 | 0.00 | 0.00 | 68 | 1013.8 |
| 20260504185524 | 28 | 289 | 1.6 | 12.9 | 0.00 | 0.00 | 0.00 | 67 | 1013.9 |
| 20260504184800 | 28 | 231 | 3.2 | 9.7 | 0.00 | 0.00 | 0.00 | 66 | 1013.8 |
| 20260504184559 | 27 | 77 | 0.0 | 9.7 | 0.00 | 0.00 | 0.00 | 66 | 1014.1 |
| 20260504184300 | 28 | 250 | 1.6 | 9.7 | 0.00 | 0.00 | 0.00 | 66 | 1013.9 |
| 20260504184019 | 28 | 251 | 3.2 | 16.1 | 0.00 | 0.00 | 0.00 | 67 | 1013.9 |
| 20260504183254 | 27 | 200 | 1.6 | 16.1 | 0.00 | 0.00 | 0.00 | 68 | 1014.0 |
| 20260504183049 | 27 | 0 | 0.0 | 17.7 | 0.00 | 0.00 | 0.00 | 67 | 1014.1 |
| 20260504182753 | 27 | 25 | 3.2 | 11.3 | 0.00 | 0.00 | 0.00 | 68 | 1013.9 |
| 20260504182249 | 27 | 72 | 3.2 | 19.3 | 0.00 | 0.00 | 0.00 | 68 | 1014.1 |
| 20260504181748 | 27 | 274 | 3.2 | 19.3 | 0.00 | 0.00 | 0.00 | 68 | 1014.2 |
| 20260504181550 | 27 | 77 | 0.0 | 16.1 | 0.00 | 0.00 | 0.00 | 68 | 1014.3 |
| 20260504181246 | 27 | 134 | 1.6 | 12.9 | 0.00 | 0.00 | 0.00 | 69 | 1014.2 |
| 20260504180745 | 27 | 264 | 1.6 | 19.3 | 0.00 | 0.00 | 0.00 | 68 | 1014.3 |
| 20260504180243 | 27 | 263 | 1.6 | 19.3 | 0.00 | 0.00 | 0.00 | 68 | 1014.3 |
| 20260504180049 | 27 | 0 | 1.6 | 17.7 | 0.00 | 0.00 | 0.00 | 68 | 1014.4 |
| 20260504175740 | 27 | 344 | 1.6 | 19.3 | 0.00 | 0.00 | 0.00 | 68 | 1014.3 |
| 20260504175241 | 27 | 338 | 3.2 | 11.3 | 0.00 | 0.00 | 0.00 | 68 | 1014.3 |
| 20260504174737 | 27 | 99 | 0.0 | 11.3 | 0.00 | 0.00 | 0.00 | 69 | 1014.4 |
| 20260504174551 | 27 | 0 | 0.0 | 14.5 | 0.00 | 0.00 | 0.00 | 69 | 1014.6 |
| 20260504174236 | 27 | 286 | 1.6 | 17.7 | 0.00 | 0.00 | 0.00 | 69 | 1014.5 |
| 20260504173736 | 27 | 311 | 1.6 | 17.7 | 0.00 | 0.00 | 0.00 | 69 | 1014.4 |
| 20260504173235 | 27 | 140 | 0.0 | 8.0 | 0.00 | 0.00 | 0.00 | 69 | 1014.4 |
| 20260504173054 | 27 | 0 | 0.0 | 12.9 | 0.00 | 0.00 | 0.00 | 69 | 1014.7 |
| 20260504172734 | 27 | 272 | 0.0 | 12.9 | 0.00 | 0.00 | 0.00 | 69 | 1014.7 |
| 20260504172234 | 27 | 219 | 1.6 | 12.9 | 0.00 | 0.00 | 0.00 | 69 | 1014.8 |
| 20260504171953 | 26 | 286 | 0.0 | 11.3 | 0.00 | 0.00 | 0.00 | 69 | 1015.0 |
| 20260504171551 | 26 | 0 | 0.0 | 19.3 | 0.00 | 0.00 | 0.00 | 69 | 1015.3 |
| 20260504171232 | 26 | 256 | 1.6 | 12.9 | 0.00 | 0.00 | 0.00 | 69 | 1015.1 |
| 20260504170730 | 27 | 293 | 1.6 | 12.9 | 0.00 | 0.00 | 0.00 | 68 | 1014.9 |
| 20260504170458 | 27 | 160 | 0.0 | 9.7 | 0.00 | 0.00 | 0.00 | 69 | 1015.0 |
| 20260504160202 | 26 | 240 | 1.6 | 17.7 | 0.00 | 0.00 | 0.00 | 69 | 1015.2 |
| 20260504150920 | 26 | 197 | 3.2 | 16.1 | 0.00 | 0.00 | 0.00 | 73 | 1015.5 |
| 20260504150204 | 25 | 320 | 1.6 | 17.7 | 0.00 | 0.00 | 0.00 | 73 | 1015.6 |
| 20260504140921 | 24 | 195 | 0.0 | 14.5 | 0.00 | 0.00 | 0.00 | 78 | 1015.7 |
| 20260504140202 | 24 | 230 | 0.0 | 4.8 | 0.00 | 0.00 | 0.00 | 78 | 1015.8 |
| 20260504140104 | 23 | 308 | 0.0 | 6.4 | 0.00 | 0.00 | 0.00 | 77 | 1016.0 |